{"data":{"norad_id":62801,"epoch":"2026-09-22T21:20:40.394688Z","epoch_age_seconds":111621,"freshness":"FRESH","line1":"1 62801U 25016S   26265.88935642  .00000051  00000+0  60266-4 0  9996","line2":"2 62801  88.9663  73.5552 0014065 244.7582 115.2111 13.51027102 85607","mean_motion":13.51027102,"eccentricity":0.0014065,"inclination_deg":88.9663,"raan_deg":73.5552,"arg_perigee_deg":244.7582,"mean_anomaly_deg":115.2111,"bstar":6.0266e-5,"rev_number":8560,"period_min":106.58557462454,"perigee_km":1058.0083263881,"apogee_km":1078.9556656238,"semimajor_km":7446.618996006,"source":"CELESTRAK","updated_at":"2026-09-23T09:00:21.637671Z"}}